632  
ASUS43 KDTX 311910  
RWRMI  
MICHIGAN HOURLY REGIONAL WEATHER ROUNDUP  
NATIONAL WEATHER SERVICE DETROIT/PONTIAC MI  
300 PM EDT FRI OCT 31 2014  
 
NOTE: "FAIR" INDICATES FEW OR NO CLOUDS BELOW 12,000 FEET WITH NO  
SIGNIFICANT WEATHER AND/OR TO VISIBILITY
.  
 
MIZ047>049-052>055-059>063-066>070-074>076-081>083-312000-  
SOUTHEAST LOWER MICHIGAN  
 
CITY SKY/WX TMP DP RH WIND PRES REMARKS
 
ADRIAN LGT RAIN 42 38 85 N10 29.89S  
ALMA LGT SNOW 36 33 89 N20G31 30.04R WCI 25  
ANN ARBOR CLOUDY 41 35 79 N16 29.89R  
BAD AXE LGT SNOW 37 36 97 N25G36 29.97R WCI 25  
CARO LGT RAIN 37 35 91 N20G29 29.97R WCI 27  
DETROIT CITY LGT RAIN 45 39 79 N13 29.88R  
DETROIT LGT RAIN 42 38 85 NW10G20 29.88R  
FLINT LGT RAIN 40 35 83 N24G35 29.95R WCI 29  
GROSSE ILE DRIZZLE 43 39 87 NW13 29.86R  
HILLSDALE LGT RAIN 42 40 93 N10G18 29.90R  
HOWELL LGT RAIN 37 35 94 N13G20 29.92R WCI 28  
 
CITY SKY/WX TMP DP RH WIND PRES REMARKS
 
JACKSON LGT RAIN 38 35 89 N14G29 29.93R WCI 30  
LAMBERTVILLE DRIZZLE 43 39 87 NW10 29.88S  
LANSING LGT SNOW 35 32 88 N20G25 30.00R FOG WCI 24  
LAPEER RAIN 38 36 91 N14G29 29.93R WCI 30  
MASON LGT RAIN 36 34 92 N16G26 29.96R WCI 26  
MONROE DRIZZLE 43 39 87 N10 29.86S  
MT. CLEMENS LGT RAIN 43 43 100 N14 29.85S FOG  
PONTIAC LGT RAIN 39 35 86 N16 29.88S WCI 30  
PORT HOPE N/A 40 36 86 N32G44 29.96R WCI 28  
PORT HURON RAIN 43 41 93 N5 29.88S  
TRI CITIES LGT SNOW 36 32 85 N28G35 30.03R FOG WCI 23  
TROY LGT RAIN 43 39 85 N10G16 29.89S  
SAGINAW HB LGT RAIN 36 36 100 N21G33 30.01R WCI 24  

 
MIZ043>046-050>051-056>058-064>065-071>073-077>080-312000-  
SOUTHWEST LOWER MICHIGAN  
 
CITY SKY/WX TMP DP RH WIND PRES REMARKS
 
BATTLE CREEK MIX PCPN 37 33 85 N18G33 29.98R WCI 27  
BENTON HARBOR LGT SNOW 34 32 92 N18G35 30.06R FOG WCI 23  
BIG RAPIDS CLOUDY 34 31 91 N18G30 30.11R WCI 23  
COLDWATER LGT RAIN 40 35 83 N18G33 29.93R WCI 31  
FREMONT CLOUDY 35 28 74 N20G30 30.12R WCI 24  
HOLLAND CLOUDY 38 31 76 N13G26 30.09R WCI 30  
GRAND RAPIDS LGT SNOW 36 33 89 N17 30.06R FOG WCI 26  
IONIA DRIZZLE 37 34 89 N14G21 30.02R WCI 28  
KALAMAZOO LGT RAIN 38 34 85 N15G25 30.00R WCI 29  
LUDINGTON CLOUDY 37 29 73 N14G29 30.19R WCI 28  
MARSHALL RAIN 36 33 91 N13G24 29.96R WCI 27  
MOUNT PLEASANT CLOUDY 38 29 70 N14G30 30.06R WCI 29  
MUSKEGON CLOUDY 39 27 62 N18G29 30.14R WCI 30  
SOUTH HAVEN LGT SNOW 35 32 92 N16G26 30.07R WCI 24  

 
MIZ016>042-312000-  
NORTHERN LOWER MICHIGAN  
 
CITY SKY/WX TMP DP RH WIND PRES REMARKS
 
ALPENA LGT RAIN 33 28 81 N23G32 30.13S WCI 21  
BEAVER ISLAND CLOUDY 35 24 64 N9G22 30.26S WCI 28  
BELLAIRE CLOUDY 34 25 69 N10G21 30.22R WCI 26  
CADILLAC CLOUDY 30 26 85 N15G22 30.13R WCI 19  
CHARLEVOIX CLOUDY 34 24 65 N21G32 30.25S WCI 22  
FRANKFORT LGT SNOW 35 29 79 N17G25 30.22R WCI 25  
GAYLORD CLOUDY 30 23 75 N13G25 30.15R WCI 20  
GRAYLING CLOUDY 33 27 77 N18G33 30.15R WCI 22  
HARBOR SPRINGS CLOUDY 33 24 71 N13G21 30.22R WCI 23  
HOUGHTON LAKE CLOUDY 33 25 72 N25G37 30.11R WCI 20  
OSCODA LGT SNOW 34 33 96 N21G30 30.05R WCI 22  
PELLSTON CLOUDY 33 25 72 N16 30.23R WCI 23  
ROGERS CITY CLOUDY 34 28 80 N15G29 30.18R WCI 24  
TRAVERSE CITY CLOUDY 37 24 59 N21G36 30.20R WCI 26  

 
MIZ007>008-015-312000-  
EASTERN UPPER MICHIGAN  
 
CITY SKY/WX TMP DP RH WIND PRES REMARKS
 
KINROSS CLOUDY 34 21 60 N15G25 30.24S WCI 24  
MACKINAC ISLAN CLOUDY 34 23 64 N16G31 30.23R WCI 23  
NEWBERRY CLOUDY 32 21 63 N18G24 30.28S WCI 21  
S. S. MARIE PTSUNNY 35 19 52 NE10G23 30.25S WCI 27  
MUNISING N/A 36 27 69 N22 30.36R WCI 25  

 
MIZ004>006-011>014-085-312000-  
CENTRAL UPPER MICHIGAN  
 
CITY SKY/WX TMP DP RH WIND PRES REMARKS
 
MANISTIQUE FLURRIES 35 24 64 N21G31 30.31R WCI 23  
ESCANABA CLOUDY 34 21 60 N16G28 30.34S WCI 23  
MENOMINEE CLOUDY 36 19 51 N16G29 30.34R WCI 26  
SAWYER-GWINN PTSUNNY 30 23 74 N18G26 30.35R WCI 18  

 
MIZ001>003-009>011-084-312000-  
WESTERN UPPER MICHIGAN  
 
CITY SKY/WX TMP DP RH WIND PRES REMARKS
 
IRON MOUNTAIN PTSUNNY 34 20 56 NE13G30 30.36S WCI 25  
HOUGHTON LGT SNOW 30 25 81 N12G22 30.44S VSB 3/4 WCI 20  
COPPER HARBOR N/A 36 24 62 NE20 30.44F WCI 25  
IRONWOOD CLOUDY 32 21 64 N8 30.45S WCI 25  

 
 
ABBREVIATIONS USED IN REMARKS  
TC - TEMPERATURE IN CELSIUS  
WCI - WIND CHILL INDEX  
HX - HEAT INDEX  
VSB - VISIBILITY  
 
CLICK HERE TO GO TO PREVIOUS BULLETINS.

The Nexlab MI Page Main Text Page